Lapse_Rate
7.2 7.3 7.3 7.2 7.4 7.4 7.5 7.5 7.5 7.6 7.7 7.6 7.6 7.7 7.7 8.0 8.1 8.2 8.2 8.3 8.1 8.4 8.4 8.7 8.6 8.7 8.7 8.3 7.8 7.7 7.5 7.3 7.0 6.5 6.1 6.3 6.4 5.8 5.6 5.8 5.6 5.7 5.6 6.0 5.8
7.0 7.2 7.3 7.4 7.3 7.3 7.4 7.5 7.5 7.6 7.6 7.6 7.5 7.5 7.6 7.8 7.9 8.2 8.0 8.4 8.2 8.3 8.5 8.7 8.6 9.0 8.5 8.3 8.0 8.1 7.8 7.3 6.8 6.8 6.4 6.4 6.3 6.1 5.9 6.1 5.9 6.0 5.6 5.9 6.0
6.7 6.9 7.1 7.2 7.3 7.3 7.3 7.3 7.3 7.4 7.5 7.5 7.4 7.3 7.4 7.6 7.9 8.0 7.9 8.2 8.1 8.3 8.4 8.8 8.9 7.9 8.2 7.8 7.9 8.1 8.0 7.4 6.9 6.5 6.6 6.5 6.3 5.8 5.7 5.8 5.8 6.0 6.3 6.0 6.0
6.4 6.6 6.7 6.9 7.1 7.1 7.2 7.3 7.3 7.3 7.3 7.3 7.4 7.3 7.2 7.4 7.4 7.7 7.8 8.0 8.2 8.3 8.5 8.8 8.4 8.1 8.2 8.6 8.4 8.4 8.3 7.8 7.4 6.9 6.3 6.4 6.3 5.7 5.6 5.8 5.8 5.3 5.6 5.7 5.7
6.2 6.3 6.5 6.6 6.8 6.9 7.0 7.1 7.1 7.1 7.1 7.2 7.2 7.2 7.2 7.1 7.9 7.5 7.4 7.9 8.3 8.2 8.6 8.7 8.6 8.2 7.7 8.7 8.5 9.0 8.0 7.6 7.4 6.9 6.5 6.0 5.9 5.5 5.5 5.8 5.6 5.6 5.6 5.5 5.5
5.9 6.0 6.1 6.3 6.5 6.6 6.7 6.8 6.8 6.9 6.9 7.0 7.0 7.1 7.0 7.2 8.1 7.4 7.3 7.8 8.0 8.3 8.4 8.4 8.2 8.1 7.5 8.5 8.6 8.4 7.6 7.8 7.7 7.5 7.1 6.9 6.2 6.0 6.2 5.8 5.5 5.6 5.5 5.5 5.5
6.0 6.0 5.9 6.0 6.1 6.4 6.5 6.5 6.6 6.5 6.6 6.7 6.7 6.9 6.9 7.7 7.9 7.5 7.4 7.9 8.2 8.5 8.2 8.4 8.3 7.9 7.3 7.9 8.3 8.4 8.0 7.8 7.7 7.7 7.8 7.1 6.2 6.1 6.4 5.9 5.8 5.8 5.4 5.2 5.0
5.9 5.9 6.0 6.0 6.0 6.1 6.2 6.3 6.3 6.4 6.2 6.3 6.4 6.5 6.8 7.8 7.6 7.4 7.5 7.8 8.0 8.1 8.5 8.4 8.4 7.9 7.6 8.1 8.2 8.1 7.8 7.6 7.4 7.7 7.7 7.0 6.9 6.3 6.1 6.1 5.8 5.6 5.5 5.4 5.3
5.5 5.7 5.9 6.0 6.1 6.1 6.1 6.0 6.1 6.2 6.0 6.0 6.0 6.3 7.4 7.7 7.5 7.4 7.6 7.9 7.8 8.2 8.6 8.2 8.2 8.0 7.7 7.7 8.4 8.3 7.9 8.0 7.2 7.2 7.0 6.9 6.9 6.4 6.2 6.1 6.3 6.1 5.8 5.3 5.1
5.0 5.2 5.5 5.8 5.9 6.2 6.1 6.0 5.9 5.9 5.9 5.8 5.8 6.2 7.0 7.0 6.9 7.3 7.8 7.7 7.4 7.7 8.2 8.2 8.1 7.9 7.9 8.0 8.0 7.8 7.5 8.1 7.6 7.6 7.5 7.3 7.1 7.1 6.7 6.4 6.5 6.3 6.0 5.8 5.5
4.8 4.9 5.0 5.2 5.6 6.0 5.9 5.7 5.6 5.3 5.4 5.8 6.0 6.7 6.6 6.8 6.8 7.4 7.6 7.6 7.4 7.2 7.6 8.1 7.9 7.7 8.1 8.8 8.4 8.3 8.5 8.1 8.4 8.1 7.5 7.6 7.9 8.1 6.8 6.6 6.6 6.3 6.2 6.0 5.8
4.5 4.6 4.8 4.8 5.1 5.5 5.6 5.4 5.4 5.0 5.9 6.0 6.1 6.9 6.8 6.6 6.7 7.3 7.3 7.0 7.0 7.2 7.7 7.7 7.7 8.5 8.2 8.1 7.5 8.0 8.1 7.8 8.3 8.1 7.8 7.4 8.0 8.2 8.0 7.2 6.7 6.4 6.4 6.3 6.5
4.6 4.5 4.6 4.4 4.7 5.0 5.1 5.0 4.8 5.2 5.5 6.6 6.3 6.7 7.4 6.3 6.8 7.0 7.0 7.2 7.2 7.5 7.5 7.5 8.2 8.6 8.3 8.2 8.4 8.2 7.9 8.2 8.5 8.6 7.8 7.3 7.2 7.1 7.8 7.0 6.6 6.4 6.4 6.5 6.5
5.0 4.8 4.7 4.7 4.6 4.4 4.7 4.7 4.7 4.9 4.9 6.1 6.6 6.8 7.2 6.4 6.4 6.9 6.9 7.0 6.9 7.3 7.5 7.5 8.4 8.6 8.1 8.0 8.3 8.4 8.8 8.8 8.7 8.3 8.0 7.8 7.3 7.3 7.5 7.0 6.7 6.9 7.2 6.8 6.9
5.6 5.5 5.1 5.4 4.6 4.3 4.0 4.3 4.4 4.5 4.2 6.8 7.2 6.7 7.4 6.5 7.2 6.8 7.0 6.6 6.8 7.1 7.0 7.1 8.4 8.6 8.2 8.3 8.2 8.6 8.6 8.7 8.7 8.0 8.0 8.1 7.9 8.5 7.4 6.8 7.0 7.0 7.3 7.0 7.1
5.7 5.5 5.7 5.1 5.5 4.2 3.8 4.3 4.0 4.5 3.9 6.4 6.5 7.1 6.9 6.6 6.9 7.6 7.0 6.9 7.2 7.0 7.1 7.5 8.2 8.6 8.3 9.0 8.4 9.2 8.8 9.0 9.0 8.2 7.6 8.0 8.3 8.0 7.7 8.4 7.5 7.4 7.3 7.2 7.0
5.4 5.4 5.6 5.7 5.2 5.1 4.5 4.4 4.1 3.8 5.5 6.6 6.9 7.1 6.9 7.2 7.0 7.1 6.8 6.6 6.6 6.7 6.8 7.2 7.8 8.3 8.5 8.9 9.3 9.0 8.8 8.7 8.3 7.6 7.5 9.0 8.5 8.7 8.9 8.6 8.4 7.7 7.5 6.9 7.0
6.4 5.9 5.6 5.5 5.3 5.0 5.0 4.6 3.4 4.0 5.7 6.9 6.9 7.3 7.2 7.2 7.1 7.3 6.9 6.7 6.6 6.9 7.0 7.1 7.4 7.7 8.6 8.3 9.0 9.3 8.5 9.5 7.6 6.7 8.2 9.1 9.0 9.2 9.2 9.1 8.4 8.0 7.8 7.1 7.0
6.6 6.8 6.9 5.4 5.4 4.9 4.7 4.3 3.4 4.6 4.9 6.5 6.8 6.6 6.9 7.5 7.5 7.0 6.9 6.8 6.7 6.7 7.0 7.0 7.0 8.2 8.4 8.4 9.0 9.3 8.6 9.9 9.1 8.4 9.0 9.1 9.3 9.4 9.3 8.8 8.3 8.0 7.8 7.5 7.3
6.9 7.0 6.8 6.6 5.5 4.4 4.0 4.0 3.8 4.7 4.6 5.1 6.0 6.0 6.3 7.1 7.3 7.2 6.7 6.7 6.9 7.0 7.0 7.4 7.4 8.0 8.5 8.7 8.9 9.1 9.3 9.5 8.8 7.8 8.1 9.0 9.3 9.3 8.9 8.5 8.4 8.2 8.2 8.1 7.5
7.0 7.3 6.7 6.6 6.7 4.8 4.0 3.9 4.3 5.2 4.5 3.9 5.0 4.4 5.0 5.0 5.9 6.4 7.0 7.0 7.0 7.1 7.1 7.4 7.5 8.3 8.5 8.4 8.6 9.0 9.2 9.5 9.2 9.1 7.5 7.2 8.9 9.6 9.3 8.9 8.8 8.7 8.4 8.6 8.2
6.9 7.3 7.1 7.0 7.0 5.8 4.7 4.7 3.9 4.5 5.0 3.5 4.0 4.5 4.5 4.3 4.3 5.1 6.0 7.1 7.6 7.4 7.2 7.3 7.5 8.0 8.3 8.5 8.5 9.1 9.3 9.5 9.5 8.7 9.1 9.0 9.2 9.4 9.6 9.3 8.9 9.1 8.8 8.5 8.6
7.0 7.2 7.6 7.1 6.8 6.4 5.2 4.3 3.6 3.7 5.0 4.3 3.7 4.8 4.8 4.1 3.6 4.7 6.1 6.9 7.4 7.9 7.4 7.5 7.3 7.9 8.4 8.9 8.8 9.1 9.3 9.5 9.5 9.1 9.1 8.4 8.8 9.6 9.6 9.2 9.1 9.2 9.0 8.9 8.8
7.0 7.3 7.2 7.0 6.7 6.8 6.3 5.4 4.4 3.9 4.0 3.2 3.4 4.3 4.8 4.7 4.3 4.9 6.2 7.6 7.4 7.7 8.0 8.0 7.7 7.2 7.9 8.0 8.6 8.8 9.0 9.0 9.2 8.9 8.8 8.8 9.0 9.4 9.3 9.1 9.1 9.4 9.2 9.1 8.8
6.9 6.8 6.8 7.1 7.5 7.2 6.7 6.1 5.4 4.7 4.9 4.5 3.9 4.2 4.7 4.6 5.2 5.5 6.1 6.0 7.2 7.6 8.1 8.5 7.9 7.8 7.9 8.6 8.7 9.0 9.1 9.1 8.9 8.8 8.7 8.8 9.0 9.2 9.2 9.3 9.3 9.5 9.3 9.0 8.9
6.5 6.7 6.9 7.2 7.1 7.3 6.9 7.2 6.9 5.7 4.3 5.1 4.4 4.2 4.7 4.8 5.3 7.1 6.5 6.0 6.1 7.7 7.9 8.6 7.9 8.2 8.2 8.6 8.5 8.6 9.2 9.4 9.1 8.9 8.6 8.8 9.0 9.1 9.4 9.4 9.4 9.4 9.3 9.1 9.2
6.6 6.7 6.8 7.0 7.0 7.1 7.1 7.3 7.4 6.0 5.7 5.5 5.3 4.2 4.6 5.1 6.2 6.3 6.0 5.4 6.1 6.3 7.1 8.4 8.3 8.3 8.2 8.7 8.6 8.3 8.5 9.0 9.3 9.0 8.6 8.8 8.9 9.4 9.4 9.5 9.5 9.5 9.5 9.5 9.5
Wind_Speed
25 25 25 25 25 26 26 26 25 25 24 24 24 23 24 22 22 2 5 9 4 12 6 3 4 6 5 5 7 3 3 2 7 16 10 13 17 8 9 12 3 7 9 12 14
25 26 27 26 26 27 27 27 26 26 25 23 23 24 23 22 4 6 10 9 7 16 3 3 4 3 1 5 0 5 4 5 6 15 17 18 21 12 7 10 8 12 16 16 13
23 24 26 28 29 28 28 28 28 27 26 24 22 24 23 17 5 7 1 6 13 11 3 2 5 4 4 5 5 2 4 8 20 14 19 18 14 7 16 4 12 22 22 16 13
23 24 25 26 27 28 29 29 29 28 27 25 23 23 28 2 4 2 5 6 9 4 1 2 2 5 3 5 4 6 6 8 5 13 15 15 10 13 4 5 16 18 19 16 12
25 25 26 26 27 28 28 28 28 28 27 25 22 20 6 3 9 2 2 4 4 4 3 2 4 3 2 6 5 3 6 15 20 20 15 15 10 10 14 17 17 17 17 15 12
27 28 28 28 28 28 28 29 28 26 25 22 19 16 2 6 7 6 3 4 4 3 3 4 4 4 8 4 5 2 12 16 18 18 15 20 16 5 15 18 18 16 15 13 12
27 28 30 31 31 31 31 31 31 29 25 19 12 3 3 16 4 12 8 5 5 4 8 5 5 3 7 2 2 5 8 9 16 11 13 18 5 10 18 20 20 18 14 15 14
27 28 29 32 35 34 34 34 34 30 25 13 5 2 8 7 18 12 3 7 9 10 8 8 6 3 1 3 5 5 6 4 3 7 11 5 5 14 16 17 17 17 16 15 13
27 28 30 32 35 37 38 40 37 22 10 5 3 3 10 9 4 12 8 8 6 7 6 6 2 4 3 4 5 8 2 1 0 3 7 2 10 14 16 15 16 16 16 14 14
28 30 31 33 36 37 41 39 22 9 3 5 4 2 6 6 4 5 8 9 6 5 7 1 3 4 3 3 4 4 2 3 3 4 15 5 7 20 19 17 16 14 14 14 16
27 30 33 35 38 39 19 5 6 5 3 7 6 6 9 1 4 5 4 7 4 1 6 4 4 7 10 9 8 8 5 5 4 2 4 2 13 21 18 15 16 15 14 14 15
26 29 33 38 40 39 4 4 4 9 10 9 17 19 25 5 9 14 3 8 6 9 4 2 7 12 9 11 6 12 8 5 5 7 4 7 11 17 20 20 21 20 18 18 15
27 27 32 38 45 5 6 1 15 17 4 7 10 9 8 11 11 19 3 7 7 8 7 8 8 6 8 5 6 1 4 4 6 4 5 10 3 14 18 17 16 17 17 17 18
28 27 27 38 7 8 7 16 24 11 3 7 8 10 9 10 7 11 9 7 6 13 5 7 10 11 9 12 10 6 9 9 7 2 4 8 4 12 17 19 18 18 17 18 18
26 28 25 17 4 5 8 24 20 3 4 5 6 2 8 14 7 9 16 6 15 7 8 10 10 12 14 11 21 16 8 15 15 10 2 5 4 6 10 15 19 19 20 18 20
27 28 25 5 3 8 19 17 3 4 8 6 4 6 9 7 7 2 6 6 7 9 6 13 4 9 14 12 17 7 8 15 6 4 7 16 6 4 12 21 22 20 20 19 18
25 30 20 10 4 10 14 5 3 4 6 6 5 6 6 8 16 6 17 10 10 13 11 5 13 14 6 7 6 14 13 4 3 2 7 9 4 9 23 16 24 24 22 20 19
26 31 10 11 12 4 4 4 4 5 11 7 5 1 11 6 11 8 6 13 7 6 5 10 9 19 7 11 9 8 19 6 7 5 5 6 7 10 27 22 23 25 27 21 20
25 4 5 4 17 5 4 2 7 6 5 12 16 7 5 6 7 12 12 9 14 11 12 8 9 6 13 12 10 8 3 8 7 2 3 4 6 6 17 20 20 20 19 20 21
3 4 4 7 6 4 3 5 5 3 11 7 4 9 8 11 7 19 11 11 7 12 9 5 2 7 7 7 9 8 5 3 3 3 2 5 5 4 10 20 20 20 23 21 20
3 4 4 11 4 4 4 6 7 20 12 10 12 8 6 6 8 7 9 12 21 12 13 6 4 7 5 8 15 1 3 4 6 5 6 2 6 8 17 19 23 24 25 23 23
3 3 4 8 3 1 5 5 8 19 14 11 7 6 12 7 8 5 6 4 14 20 13 11 5 7 12 3 10 9 12 8 5 4 2 5 6 6 14 16 19 23 23 23 24
3 3 5 4 3 3 6 5 5 16 21 7 5 11 13 9 7 10 7 7 21 20 20 12 8 1 6 7 4 6 6 6 6 4 6 5 7 3 8 15 22 23 22 22 23
2 4 4 4 2 3 5 5 7 12 13 10 15 17 17 15 8 10 15 13 19 19 22 17 5 17 10 8 5 4 7 7 8 5 6 7 9 13 6 12 10 20 24 21 21
1 2 3 4 3 4 3 5 9 7 4 9 9 15 16 6 9 14 14 12 16 12 17 17 16 9 21 15 6 5 8 9 7 7 7 9 8 12 5 11 16 19 19 20 19
1 1 2 5 9 4 2 4 9 11 4 13 9 16 10 17 18 10 12 8 10 10 12 9 10 10 16 11 6 11 10 17 12 6 8 8 8 8 6 1 8 16 20 20 19
2 3 1 5 4 2 4 7 12 13 11 9 12 17 15 17 21 21 18 17 16 12 5 6 17 9 16 15 11 7 8 13 13 13 13 11 12 5 6 9 14 10 13 20 20
Wind_Direction
5 2 359 356 352 349 346 344 342 340 338 336 334 333 328 327 316 160 262 220 158 164 122 169 200 227 172 231 228 114 61 291 169 134 125 131 123 123 87 128 145 196 146 138 151
2 358 355 353 350 346 343 340 338 337 335 335 333 330 327 330 315 260 251 233 133 142 137 292 319 330 225 228 161 124 145 228 139 122 148 145 132 125 122 122 104 102 115 139 150
359 356 352 348 347 343 340 337 335 334 333 333 333 329 324 322 320 259 93 197 138 161 169 297 271 299 283 159 170 182 182 122 139 151 138 135 133 114 131 152 176 148 147 153 155
356 352 349 345 341 339 336 333 331 329 329 329 332 331 320 254 274 305 184 232 109 166 208 267 324 326 271 279 172 117 172 125 124 101 138 146 115 126 125 134 146 140 148 153 161
352 349 344 341 337 334 331 328 326 324 324 325 329 336 353 353 248 302 352 314 132 168 192 232 353 311 324 300 127 130 95 91 104 101 118 109 107 101 107 126 135 140 152 162 165
349 344 341 338 334 330 327 323 320 317 314 315 320 326 345 250 248 266 330 295 247 272 185 165 225 261 295 332 56 214 118 132 120 118 127 113 121 103 137 139 144 152 164 171 178
345 343 339 335 332 329 325 320 315 311 306 306 303 299 272 238 256 300 303 242 254 249 281 227 237 118 275 226 157 34 93 88 125 139 118 111 51 119 152 155 158 168 175 178 188
342 339 337 333 329 327 323 317 309 303 299 291 247 193 246 251 248 275 239 281 259 255 208 259 264 187 46 299 42 67 51 96 206 134 156 80 142 152 158 156 163 175 178 184 181
340 337 334 331 328 326 321 313 304 298 278 180 134 167 267 298 213 243 197 233 294 293 291 273 228 141 12 67 23 32 95 70 141 248 173 118 136 173 168 170 173 182 181 187 189
339 337 334 331 328 327 322 308 293 284 184 183 254 351 270 246 237 232 175 171 223 301 332 215 61 110 66 110 181 129 123 214 214 252 163 136 154 167 178 180 182 179 187 190 190
338 336 333 331 328 326 333 351 10 2 24 256 221 256 294 322 327 276 172 149 172 233 224 274 129 208 194 208 178 147 213 149 279 211 129 200 151 175 182 182 188 185 186 195 199
337 336 333 330 327 323 331 47 77 283 289 256 254 248 262 313 301 298 152 160 152 220 168 323 219 216 192 211 198 179 187 211 216 250 102 122 170 187 180 195 192 189 189 196 198
334 337 335 333 322 7 299 248 336 342 256 274 218 233 226 164 230 260 183 182 172 210 198 189 234 168 184 145 214 184 192 202 196 126 137 127 195 197 203 195 198 201 200 196 191
330 334 340 339 37 329 299 334 332 325 340 266 218 241 190 166 273 226 210 199 207 197 192 225 232 228 209 170 172 221 224 230 249 104 246 151 245 209 199 200 198 202 202 203 195
328 328 335 335 278 323 281 326 321 63 299 217 218 203 182 169 164 234 202 209 194 188 156 225 181 209 230 201 181 222 199 220 235 235 20 209 134 249 157 204 203 201 203 204 194
324 322 332 349 318 248 309 312 12 59 240 285 188 163 120 197 210 177 150 181 157 189 227 225 237 199 220 224 187 172 193 247 267 175 202 207 151 260 191 201 197 197 201 198 185
321 316 314 288 242 309 335 4 73 187 305 255 223 160 168 172 198 176 182 182 183 178 207 241 246 254 211 203 159 203 196 239 234 169 215 167 141 224 209 195 191 188 196 197 186
322 311 273 235 233 282 0 60 191 222 256 330 350 317 182 140 212 207 161 201 209 140 142 195 240 227 208 190 181 183 217 181 224 212 258 141 212 247 193 183 187 190 188 186 184
324 315 286 251 219 116 69 131 202 235 323 2 331 286 305 204 154 196 213 214 205 177 181 168 232 249 221 229 143 229 191 197 138 36 51 246 300 336 167 179 183 184 183 185 184
323 335 276 252 160 96 82 247 265 321 5 338 335 21 10 330 3 182 184 219 210 191 179 216 217 236 254 189 225 164 218 236 21 134 223 314 298 203 176 180 185 181 190 190 188
22 344 262 359 91 84 192 225 305 290 330 344 332 314 348 327 355 315 221 226 196 204 183 170 104 262 253 198 220 166 219 37 118 135 164 207 273 201 186 187 181 188 192 186 187
357 330 288 348 32 119 229 194 232 272 292 279 292 274 265 294 302 315 256 257 191 201 196 191 165 233 229 242 201 181 200 167 127 230 152 164 260 268 176 182 197 190 191 190 191
319 258 312 75 36 334 325 320 303 278 269 269 286 313 315 325 324 300 274 323 315 192 196 180 194 33 325 305 285 187 188 150 117 97 186 152 259 126 235 186 194 185 192 192 193
356 344 331 26 317 71 5 295 319 303 300 297 281 265 276 283 242 277 295 303 316 265 187 178 161 207 202 223 156 175 194 168 138 136 165 208 270 291 259 189 172 189 189 189 190
341 342 13 314 326 341 289 263 287 296 283 296 292 255 245 249 283 261 275 300 292 287 197 179 209 179 223 236 239 210 188 190 169 176 161 237 211 260 237 205 174 185 183 185 187
76 6 293 272 271 281 266 286 288 301 333 304 288 296 261 229 227 271 295 295 274 327 209 186 203 164 220 224 213 222 236 203 196 162 199 161 233 217 280 218 132 169 177 181 185
309 318 163 270 288 20 309 332 301 318 288 280 319 309 290 277 239 246 257 259 258 278 281 224 199 163 216 214 238 259 215 222 212 204 184 209 220 155 194 267 166 174 169 179 186